Location: Firdgum
(53.2488°N, 5.5615°E)
Time: 12:05:09
(UTC+00:00)

Cosmos 2082 Rocket - Pass Details

Date: 08 December 2019
Orbit: 834 x 852 km, 71.0° (Epoch: 19 January)

Event Time Altitude Azimuth Distance (km) Brightness Sun altitude
Exits shadow 04:36:43 12° 353° (N) 2,301 4.3 -25.8°
Maximum altitude 04:38:15 14° 10° (N) 2,218 4.4 -25.5°
Drops below altitude 10° 04:41:03 10° 40° (NE) 2,469 5.0 -25.1°
Sets 04:44:54 0° 66° (ENE) 3,399 6.3 -24.6°
